Location: Colle Santa Colomba
(42.0333°N, 12.5667°E)
Time: 18:50:00
(UTC+00:00)

Envisat - Visible Passes

Search period start: 27 November 2022 00:00
Search period end: 07 December 2022 00:00
Orbit: 763 x 765 km, 98.2° (Epoch: 26 November)

Date Brightness Start Highest point End Pass type
(mag) Time Alt. Az. Time Alt. Az. Time Alt. Az.
27 Nov 5.1 03:07:19 10° NNE 03:08:38 18° NNE 03:08:38 18° NNE visible
27 Nov 4.7 04:47:24 10° NNW 04:48:49 15° NNW 04:48:49 15° NNW visible
28 Nov 5.9 02:30:57 10° NE 02:31:00 10° NE 02:31:00 10° NE visible
28 Nov 4.6 04:09:32 10° N 04:11:09 19° NNW 04:11:09 19° NNW visible
29 Nov 5.0 03:32:16 10° NNE 03:33:31 18° NNE 03:33:31 18° NNE visible
30 Nov 5.6 02:55:29 10° NNE 02:55:53 12° NNE 02:55:53 12° NNE visible
30 Nov 4.9 04:35:05 10° NNW 04:36:04 14° NNW 04:36:04 14° NNW visible
01 Dec 5.0 03:57:27 10° N 03:58:27 16° N 03:58:27 16° N visible
02 Dec 5.4 03:20:20 10° NNE 03:20:50 13° NNE 03:20:50 13° NNE visible
03 Dec 5.1 04:22:51 10° N 04:23:24 13° NNW 04:23:24 13° NNW visible
04 Dec 5.3 03:45:25 10° N 03:45:48 12° N 03:45:48 12° N visible
05 Dec 6.1 16:05:57 10° WSW 16:07:45 12° W 16:09:34 10° WNW visible
06 Dec 5.3 04:10:42 10° N 04:10:48 10° N 04:10:48 10° N visible
